Year,Month,Day,Hour,Minute,Value (Times are PST for temperature in C)
2006,08,19,00,00,14.40
2006,08,19,00,01,14.30
2006,08,19,00,02,14.30
2006,08,19,00,03,14.30
2006,08,19,00,04,14.30
2006,08,19,00,05,14.30
2006,08,19,00,06,14.30
2006,08,19,00,07,14.20
2006,08,19,00,08,14.20
2006,08,19,00,09,14.20
2006,08,19,00,10,14.20
2006,08,19,00,11,14.20
2006,08,19,00,12,14.20
2006,08,19,00,13,14.20
2006,08,19,00,14,14.20
2006,08,19,00,15,14.20
2006,08,19,00,16,14.20
2006,08,19,00,17,14.10
2006,08,19,00,18,14.10
2006,08,19,00,19,14.10
2006,08,19,00,20,14.10
2006,08,19,00,21,14.10
2006,08,19,00,22,14.00
2006,08,19,00,23,14.00
2006,08,19,00,24,14.00
2006,08,19,00,25,14.00
2006,08,19,00,26,13.90
2006,08,19,00,27,13.90
2006,08,19,00,28,13.90
2006,08,19,00,29,13.90
2006,08,19,00,30,13.90
2006,08,19,00,31,13.80
2006,08,19,00,32,13.80
2006,08,19,00,33,13.80
2006,08,19,00,34,13.70
2006,08,19,00,35,13.70
2006,08,19,00,36,13.70
2006,08,19,00,37,13.70
2006,08,19,00,38,13.70
2006,08,19,00,39,13.70
2006,08,19,00,40,13.70
2006,08,19,00,41,13.70
2006,08,19,00,42,13.70
2006,08,19,00,43,13.70
2006,08,19,00,44,13.70
2006,08,19,00,45,13.70
2006,08,19,00,46,13.70
2006,08,19,00,47,13.70
2006,08,19,00,48,13.70
2006,08,19,00,49,13.70
2006,08,19,00,50,13.70
2006,08,19,00,51,13.70
2006,08,19,00,52,13.70
2006,08,19,00,53,13.70
2006,08,19,00,54,13.70
2006,08,19,00,55,13.70
2006,08,19,00,56,13.70
2006,08,19,00,57,13.70
2006,08,19,00,58,13.70
2006,08,19,00,59,13.70
2006,08,19,01,00,13.70
2006,08,19,01,01,13.70
2006,08,19,01,02,13.60
2006,08,19,01,03,13.60
2006,08,19,01,04,13.60
2006,08,19,01,05,13.50
2006,08,19,01,06,13.50
2006,08,19,01,07,13.50
2006,08,19,01,08,13.40
2006,08,19,01,09,13.40
2006,08,19,01,10,13.40
2006,08,19,01,11,13.40
2006,08,19,01,12,13.40
2006,08,19,01,13,13.40
2006,08,19,01,14,13.40
2006,08,19,01,15,13.50
2006,08,19,01,16,13.50
2006,08,19,01,17,13.60
2006,08,19,01,18,13.70
2006,08,19,01,19,13.60
2006,08,19,01,20,13.50
2006,08,19,01,21,13.40
2006,08,19,01,22,13.30
2006,08,19,01,23,13.30
2006,08,19,01,24,13.30
2006,08,19,01,25,13.20
2006,08,19,01,26,13.20
2006,08,19,01,27,13.20
2006,08,19,01,28,13.10
2006,08,19,01,29,13.10
2006,08,19,01,30,13.10
2006,08,19,01,31,13.10
2006,08,19,01,32,13.00
2006,08,19,01,33,13.00
2006,08,19,01,34,13.00
2006,08,19,01,35,12.90
2006,08,19,01,36,12.80
2006,08,19,01,37,12.80
2006,08,19,01,38,12.70
2006,08,19,01,39,12.70
2006,08,19,01,40,12.60
2006,08,19,01,41,12.60
2006,08,19,01,42,12.60
2006,08,19,01,43,12.60
2006,08,19,01,44,12.60
2006,08,19,01,45,12.60
2006,08,19,01,46,12.60
2006,08,19,01,47,12.50
2006,08,19,01,48,12.50
2006,08,19,01,49,12.50
2006,08,19,01,50,12.50
2006,08,19,01,51,12.50
2006,08,19,01,52,12.50
2006,08,19,01,53,12.50
2006,08,19,01,54,12.50
2006,08,19,01,55,12.50
2006,08,19,01,56,12.50
2006,08,19,01,57,12.50
2006,08,19,01,58,12.50
2006,08,19,01,59,12.50
2006,08,19,02,00,12.50
2006,08,19,02,01,12.50
2006,08,19,02,02,12.50
2006,08,19,02,03,12.50
2006,08,19,02,04,12.50
2006,08,19,02,05,12.50
2006,08,19,02,06,12.40
2006,08,19,02,07,12.40
2006,08,19,02,08,12.40
2006,08,19,02,09,12.40
2006,08,19,02,10,12.40
2006,08,19,02,11,12.30
2006,08,19,02,12,12.30
2006,08,19,02,13,12.30
2006,08,19,02,14,12.40
2006,08,19,02,15,12.40
2006,08,19,02,16,12.40
2006,08,19,02,17,12.40
2006,08,19,02,18,12.40
2006,08,19,02,19,12.40
2006,08,19,02,20,12.50
2006,08,19,02,21,12.50
2006,08,19,02,22,12.50
2006,08,19,02,23,12.50
2006,08,19,02,24,12.60
2006,08,19,02,25,12.60
2006,08,19,02,26,12.60
2006,08,19,02,27,12.60
2006,08,19,02,28,12.70
2006,08,19,02,29,12.70
2006,08,19,02,30,12.70
2006,08,19,02,31,12.70
2006,08,19,02,32,12.70
2006,08,19,02,33,12.70
2006,08,19,02,34,12.60
2006,08,19,02,35,12.60
2006,08,19,02,36,12.60
2006,08,19,02,37,12.60
2006,08,19,02,38,12.60
2006,08,19,02,39,12.50
2006,08,19,02,40,12.50
2006,08,19,02,41,12.50
2006,08,19,02,42,12.50
2006,08,19,02,43,12.50
2006,08,19,02,44,12.50
2006,08,19,02,45,12.40
2006,08,19,02,46,12.40
2006,08,19,02,47,12.40
2006,08,19,02,48,12.40
2006,08,19,02,49,12.40
2006,08,19,02,50,12.30
2006,08,19,02,51,12.30
2006,08,19,02,52,12.30
2006,08,19,02,53,12.30
2006,08,19,02,54,12.20
2006,08,19,02,55,12.20
2006,08,19,02,56,12.20
2006,08,19,02,57,12.10
2006,08,19,02,58,12.00
2006,08,19,02,59,12.00
2006,08,19,03,00,12.00
2006,08,19,03,01,11.90
2006,08,19,03,02,11.90
2006,08,19,03,03,11.90
2006,08,19,03,04,11.80
2006,08,19,03,05,11.80
2006,08,19,03,06,11.80
2006,08,19,03,07,11.80
2006,08,19,03,08,11.80
2006,08,19,03,09,11.80
2006,08,19,03,10,11.80
2006,08,19,03,11,11.90
2006,08,19,03,12,11.90
2006,08,19,03,13,11.90
2006,08,19,03,14,11.90
2006,08,19,03,15,12.00
2006,08,19,03,16,12.00
2006,08,19,03,17,12.00
2006,08,19,03,18,12.00
2006,08,19,03,19,12.00
2006,08,19,03,20,11.90
2006,08,19,03,21,11.90
2006,08,19,03,22,11.90
2006,08,19,03,23,11.90
2006,08,19,03,24,11.90
2006,08,19,03,25,11.80
2006,08,19,03,26,11.80
2006,08,19,03,27,11.80
2006,08,19,03,28,11.80
2006,08,19,03,29,11.80
2006,08,19,03,30,11.80
2006,08,19,03,31,11.80
2006,08,19,03,32,11.80
2006,08,19,03,33,11.80
2006,08,19,03,34,11.70
2006,08,19,03,35,11.70
2006,08,19,03,36,11.70
2006,08,19,03,37,11.70
2006,08,19,03,38,11.60
2006,08,19,03,39,11.60
2006,08,19,03,40,11.60
2006,08,19,03,41,11.60
2006,08,19,03,42,11.60
2006,08,19,03,43,11.60
2006,08,19,03,44,11.60
2006,08,19,03,45,11.60
2006,08,19,03,46,11.60
2006,08,19,03,47,11.60
2006,08,19,03,48,11.60
2006,08,19,03,49,11.50
2006,08,19,03,50,11.40
2006,08,19,03,51,11.40
2006,08,19,03,52,11.40
2006,08,19,03,53,11.40
2006,08,19,03,54,11.30
2006,08,19,03,55,11.30
2006,08,19,03,56,11.30
2006,08,19,03,57,11.30
2006,08,19,03,58,11.30
2006,08,19,03,59,11.30
2006,08,19,04,00,11.20
2006,08,19,04,01,11.20
2006,08,19,04,02,11.20
2006,08,19,04,03,11.20
2006,08,19,04,04,11.20
2006,08,19,04,05,11.20
2006,08,19,04,06,11.20
2006,08,19,04,07,11.20
2006,08,19,04,08,11.20
2006,08,19,04,09,11.20
2006,08,19,04,10,11.20
2006,08,19,04,11,11.20
2006,08,19,04,12,11.30
2006,08,19,04,13,11.30
2006,08,19,04,14,11.30
2006,08,19,04,15,11.30
2006,08,19,04,16,11.30
2006,08,19,04,17,11.30
2006,08,19,04,18,11.30
2006,08,19,04,19,11.30
2006,08,19,04,20,11.30
2006,08,19,04,21,11.30
2006,08,19,04,22,11.30
2006,08,19,04,23,11.30
2006,08,19,04,24,11.30
2006,08,19,04,25,11.30
2006,08,19,04,26,11.30
2006,08,19,04,27,11.30
2006,08,19,04,28,11.30
2006,08,19,04,29,11.30
2006,08,19,04,30,11.30
2006,08,19,04,31,11.30
2006,08,19,04,32,11.30
2006,08,19,04,33,11.30
2006,08,19,04,34,11.30
2006,08,19,04,35,11.30
2006,08,19,04,36,11.30
2006,08,19,04,37,11.30
2006,08,19,04,38,11.30
2006,08,19,04,39,11.30
2006,08,19,04,40,11.30
2006,08,19,04,41,11.30
2006,08,19,04,42,11.20
2006,08,19,04,43,11.20
2006,08,19,04,44,11.20
2006,08,19,04,45,11.20
2006,08,19,04,46,11.20
2006,08,19,04,47,11.20
2006,08,19,04,48,11.10
2006,08,19,04,49,11.10
2006,08,19,04,50,11.10
2006,08,19,04,51,11.10
2006,08,19,04,52,11.10
2006,08,19,04,53,11.10
2006,08,19,04,54,11.10
2006,08,19,04,55,11.10
2006,08,19,04,56,11.10
2006,08,19,04,57,11.10
2006,08,19,04,58,11.00
2006,08,19,04,59,10.90
2006,08,19,05,00,10.90
2006,08,19,05,01,10.90
2006,08,19,05,02,10.90
2006,08,19,05,03,10.80
2006,08,19,05,04,10.80
2006,08,19,05,05,10.80
2006,08,19,05,06,10.70
2006,08,19,05,07,10.70
2006,08,19,05,08,10.70
2006,08,19,05,09,10.70
2006,08,19,05,10,10.70
2006,08,19,05,11,10.70
2006,08,19,05,12,10.70
2006,08,19,05,13,10.70
2006,08,19,05,14,10.70
2006,08,19,05,15,10.70
2006,08,19,05,16,10.70
2006,08,19,05,17,10.60
2006,08,19,05,18,10.60
2006,08,19,05,19,10.60
2006,08,19,05,20,10.60
2006,08,19,05,21,10.60
2006,08,19,05,22,10.60
2006,08,19,05,23,10.60
2006,08,19,05,24,10.60
2006,08,19,05,25,10.60
2006,08,19,05,26,10.60
2006,08,19,05,27,10.50
2006,08,19,05,28,10.40
2006,08,19,05,29,10.40
2006,08,19,05,30,10.40
2006,08,19,05,31,10.40
2006,08,19,05,32,10.40
2006,08,19,05,33,10.40
2006,08,19,05,34,10.40
2006,08,19,05,35,10.40
2006,08,19,05,36,10.30
2006,08,19,05,37,10.30
2006,08,19,05,38,10.30
2006,08,19,05,39,10.30
2006,08,19,05,40,10.20
2006,08,19,05,41,10.20
2006,08,19,05,42,10.20
2006,08,19,05,43,10.20
2006,08,19,05,44,10.20
2006,08,19,05,45,10.10
2006,08,19,05,46,10.10
2006,08,19,05,47,10.10
2006,08,19,05,48,10.10
2006,08,19,05,49,10.10
2006,08,19,05,50,10.10
2006,08,19,05,51,10.10
2006,08,19,05,52,10.10
2006,08,19,05,53,10.10
2006,08,19,05,54,10.00
2006,08,19,05,55,9.90
2006,08,19,05,56,9.90
2006,08,19,05,57,9.90
2006,08,19,05,58,9.90
2006,08,19,05,59,9.90
2006,08,19,06,00,9.90
2006,08,19,06,01,9.90
2006,08,19,06,02,9.90
2006,08,19,06,03,9.90
2006,08,19,06,04,9.90
2006,08,19,06,05,9.90
2006,08,19,06,06,9.90
2006,08,19,06,07,9.90
2006,08,19,06,08,9.90
2006,08,19,06,09,9.90
2006,08,19,06,10,9.90
2006,08,19,06,11,9.90
2006,08,19,06,12,9.90
2006,08,19,06,13,9.90
2006,08,19,06,14,10.00
2006,08,19,06,15,10.10
2006,08,19,06,16,10.10
2006,08,19,06,17,10.10
2006,08,19,06,18,10.10
2006,08,19,06,19,10.10
2006,08,19,06,20,10.10
2006,08,19,06,21,10.10
2006,08,19,06,22,10.10
2006,08,19,06,23,10.10
2006,08,19,06,24,10.10
2006,08,19,06,25,10.10
2006,08,19,06,26,10.10
2006,08,19,06,27,10.10
2006,08,19,06,28,10.10
2006,08,19,06,29,10.10
2006,08,19,06,30,10.10
2006,08,19,06,31,10.10
2006,08,19,06,32,10.10
2006,08,19,06,33,10.10
2006,08,19,06,34,10.10
2006,08,19,06,35,10.10
2006,08,19,06,36,10.10
2006,08,19,06,37,10.10
2006,08,19,06,38,10.10
2006,08,19,06,39,10.10
2006,08,19,06,40,10.00
2006,08,19,06,41,9.90
2006,08,19,06,42,9.90
2006,08,19,06,43,9.90
2006,08,19,06,44,9.90
2006,08,19,06,45,9.90
2006,08,19,06,46,9.90
2006,08,19,06,47,9.90
2006,08,19,06,48,9.90
2006,08,19,06,49,9.90
2006,08,19,06,50,9.90
2006,08,19,06,51,9.90
2006,08,19,06,52,9.90
2006,08,19,06,53,9.90
2006,08,19,06,54,9.90
2006,08,19,06,55,10.10
2006,08,19,06,56,10.10
2006,08,19,06,57,10.10
2006,08,19,06,58,10.10
2006,08,19,06,59,10.10
2006,08,19,07,00,10.10
2006,08,19,07,01,10.20
2006,08,19,07,02,10.20
2006,08,19,07,03,10.30
2006,08,19,07,04,10.40
2006,08,19,07,05,10.40
2006,08,19,07,06,10.50
2006,08,19,07,07,10.60
2006,08,19,07,08,10.70
2006,08,19,07,09,10.70
2006,08,19,07,10,10.80
2006,08,19,07,11,10.90
2006,08,19,07,12,10.90
2006,08,19,07,13,11.00
2006,08,19,07,14,11.10
2006,08,19,07,15,11.10
2006,08,19,07,16,11.20
2006,08,19,07,17,11.20
2006,08,19,07,18,11.30
2006,08,19,07,19,11.30
2006,08,19,07,20,11.30
2006,08,19,07,21,11.30
2006,08,19,07,22,11.40
2006,08,19,07,23,11.40
2006,08,19,07,24,11.40
2006,08,19,07,25,11.50
2006,08,19,07,26,11.60
2006,08,19,07,27,11.60
2006,08,19,07,28,11.60
2006,08,19,07,29,11.70
2006,08,19,07,30,11.80
2006,08,19,07,31,11.80
2006,08,19,07,32,12.00
2006,08,19,07,33,12.00
2006,08,19,07,34,12.10
2006,08,19,07,35,12.10
2006,08,19,07,36,12.20
2006,08,19,07,37,12.40
2006,08,19,07,38,12.50
2006,08,19,07,39,12.70
2006,08,19,07,40,12.80
2006,08,19,07,41,12.90
2006,08,19,07,42,13.00
2006,08,19,07,43,13.00
2006,08,19,07,44,13.10
2006,08,19,07,45,13.10
2006,08,19,07,46,13.20
2006,08,19,07,47,13.30
2006,08,19,07,48,13.40
2006,08,19,07,49,13.50
2006,08,19,07,50,13.60
2006,08,19,07,51,13.70
2006,08,19,07,52,13.80
2006,08,19,07,53,13.90
2006,08,19,07,54,14.00
2006,08,19,07,55,14.00
2006,08,19,07,56,14.10
2006,08,19,07,57,14.10
2006,08,19,07,58,14.10
2006,08,19,07,59,14.10
2006,08,19,08,00,14.20
2006,08,19,08,01,14.20
2006,08,19,08,02,14.20
2006,08,19,08,03,14.30
2006,08,19,08,04,14.40
2006,08,19,08,05,14.50
2006,08,19,08,06,14.50
2006,08,19,08,07,14.60
2006,08,19,08,08,14.70
2006,08,19,08,09,14.80
2006,08,19,08,10,14.80
2006,08,19,08,11,14.80
2006,08,19,08,12,14.90
2006,08,19,08,13,15.00
2006,08,19,08,14,15.00
2006,08,19,08,15,15.10
2006,08,19,08,16,15.10
2006,08,19,08,17,15.20
2006,08,19,08,18,15.30
2006,08,19,08,19,15.40
2006,08,19,08,20,15.50
2006,08,19,08,21,15.60
2006,08,19,08,22,15.70
2006,08,19,08,23,15.70
2006,08,19,08,24,15.80
2006,08,19,08,25,15.80
2006,08,19,08,26,15.80
2006,08,19,08,27,15.80
2006,08,19,08,28,15.80
2006,08,19,08,29,15.80
2006,08,19,08,30,15.80
2006,08,19,08,31,15.90
2006,08,19,08,32,16.00
2006,08,19,08,33,16.10
2006,08,19,08,34,16.10
2006,08,19,08,35,16.20
2006,08,19,08,36,16.20
2006,08,19,08,37,16.30
2006,08,19,08,38,16.30
2006,08,19,08,39,16.40
2006,08,19,08,40,16.60
2006,08,19,08,41,16.70
2006,08,19,08,42,16.80
2006,08,19,08,43,16.90
2006,08,19,08,44,17.00
2006,08,19,08,45,17.20
2006,08,19,08,46,17.40
2006,08,19,08,47,17.60
2006,08,19,08,48,17.80
2006,08,19,08,49,18.00
2006,08,19,08,50,18.10
2006,08,19,08,51,18.20
2006,08,19,08,52,18.30
2006,08,19,08,53,18.30
2006,08,19,08,54,18.30
2006,08,19,08,55,18.30
2006,08,19,08,56,18.30
2006,08,19,08,57,18.30
2006,08,19,08,58,18.30
2006,08,19,08,59,18.20
2006,08,19,09,00,18.20
2006,08,19,09,01,18.20
2006,08,19,09,02,18.20
2006,08,19,09,03,18.40
2006,08,19,09,04,18.50
2006,08,19,09,05,18.60
2006,08,19,09,06,18.80
2006,08,19,09,07,18.80
2006,08,19,09,08,18.80
2006,08,19,09,09,18.90
2006,08,19,09,10,18.90
2006,08,19,09,11,18.90
2006,08,19,09,12,19.00
2006,08,19,09,13,19.10
2006,08,19,09,14,19.10
2006,08,19,09,15,19.00
2006,08,19,09,16,18.90
2006,08,19,09,17,18.80
2006,08,19,09,18,18.70
2006,08,19,09,19,18.70
2006,08,19,09,20,18.80
2006,08,19,09,21,18.80
2006,08,19,09,22,18.80
2006,08,19,09,23,18.70
2006,08,19,09,24,18.70
2006,08,19,09,25,18.70
2006,08,19,09,26,18.70
2006,08,19,09,27,18.80
2006,08,19,09,28,18.80
2006,08,19,09,29,18.90
2006,08,19,09,30,18.80
2006,08,19,09,31,18.70
2006,08,19,09,32,18.70
2006,08,19,09,33,18.70
2006,08,19,09,34,18.80
2006,08,19,09,35,18.80
2006,08,19,09,36,18.80
2006,08,19,09,37,18.80
2006,08,19,09,38,18.80
2006,08,19,09,39,18.80
2006,08,19,09,40,18.80
2006,08,19,09,41,18.70
2006,08,19,09,42,18.70
2006,08,19,09,43,18.70
2006,08,19,09,44,18.80
2006,08,19,09,45,18.90
2006,08,19,09,46,18.90
2006,08,19,09,47,18.90
2006,08,19,09,48,18.90
2006,08,19,09,49,18.90
2006,08,19,09,50,18.90
2006,08,19,09,51,18.90
2006,08,19,09,52,18.90
2006,08,19,09,53,18.90
2006,08,19,09,54,18.90
2006,08,19,09,55,18.90
2006,08,19,09,56,18.90
2006,08,19,09,57,18.90
2006,08,19,09,58,18.90
2006,08,19,09,59,18.90
2006,08,19,10,00,19.00
2006,08,19,10,01,19.10
2006,08,19,10,02,19.10
2006,08,19,10,03,19.10
2006,08,19,10,04,19.00
2006,08,19,10,05,18.90
2006,08,19,10,06,18.90
2006,08,19,10,07,18.90
2006,08,19,10,08,18.90
2006,08,19,10,09,19.00
2006,08,19,10,10,19.10
2006,08,19,10,11,19.10
2006,08,19,10,12,19.10
2006,08,19,10,13,19.10
2006,08,19,10,14,19.10
2006,08,19,10,15,19.20
2006,08,19,10,16,19.20
2006,08,19,10,17,19.20
2006,08,19,10,18,19.10
2006,08,19,10,19,19.10
2006,08,19,10,20,19.10
2006,08,19,10,21,19.10
2006,08,19,10,22,19.20
2006,08,19,10,23,19.20
2006,08,19,10,24,19.20
2006,08,19,10,25,19.20
2006,08,19,10,26,19.20
2006,08,19,10,27,19.20
2006,08,19,10,28,19.20
2006,08,19,10,29,19.20
2006,08,19,10,30,19.20
2006,08,19,10,31,19.40
2006,08,19,10,32,19.40
2006,08,19,10,33,19.40
2006,08,19,10,34,19.40
2006,08,19,10,35,19.50
2006,08,19,10,36,19.50
2006,08,19,10,37,19.50
2006,08,19,10,38,19.50
2006,08,19,10,39,19.50
2006,08,19,10,40,19.40
2006,08,19,10,41,19.40
2006,08,19,10,42,19.40
2006,08,19,10,43,19.50
2006,08,19,10,44,19.50
2006,08,19,10,45,19.70
2006,08,19,10,46,19.80
2006,08,19,10,47,19.80
2006,08,19,10,48,19.80
2006,08,19,10,49,19.70
2006,08,19,10,50,19.70
2006,08,19,10,51,19.60
2006,08,19,10,52,19.50
2006,08,19,10,53,19.40
2006,08,19,10,54,19.40
2006,08,19,10,55,19.50
2006,08,19,10,56,19.50
2006,08,19,10,57,19.70
2006,08,19,10,58,19.80
2006,08,19,10,59,19.90
2006,08,19,11,00,19.90
2006,08,19,11,01,20.10
2006,08,19,11,02,20.20
2006,08,19,11,03,20.20
2006,08,19,11,04,20.30
2006,08,19,11,05,20.30
2006,08,19,11,06,20.20
2006,08,19,11,07,20.10
2006,08,19,11,08,20.00
2006,08,19,11,09,19.90
2006,08,19,11,10,19.70
2006,08,19,11,11,19.70
2006,08,19,11,12,19.70
2006,08,19,11,13,19.80
2006,08,19,11,14,19.90
2006,08,19,11,15,19.90
2006,08,19,11,16,19.90
2006,08,19,11,17,19.90
2006,08,19,11,18,19.90
2006,08,19,11,19,20.00
2006,08,19,11,20,20.10
2006,08,19,11,21,20.00
2006,08,19,11,22,19.90
2006,08,19,11,23,19.90
2006,08,19,11,24,19.90
2006,08,19,11,25,20.00
2006,08,19,11,26,20.10
2006,08,19,11,27,20.10
2006,08,19,11,28,20.20
2006,08,19,11,29,20.20
2006,08,19,11,30,20.30
2006,08,19,11,31,20.30
2006,08,19,11,32,20.30
2006,08,19,11,33,20.30
2006,08,19,11,34,20.30
2006,08,19,11,35,20.40
2006,08,19,11,36,20.40
2006,08,19,11,37,20.50
2006,08,19,11,38,20.40
2006,08,19,11,39,20.40
2006,08,19,11,40,20.40
2006,08,19,11,41,20.50
2006,08,19,11,42,20.60
2006,08,19,11,43,20.80
2006,08,19,11,44,20.90
2006,08,19,11,45,20.90
2006,08,19,11,46,20.80
2006,08,19,11,47,20.80
2006,08,19,11,48,20.90
2006,08,19,11,49,20.90
2006,08,19,11,50,20.90
2006,08,19,11,51,20.90
2006,08,19,11,52,20.80
2006,08,19,11,53,20.90
2006,08,19,11,54,21.00
2006,08,19,11,55,21.00
2006,08,19,11,56,21.00
2006,08,19,11,57,20.90
2006,08,19,11,58,20.90
2006,08,19,11,59,20.80
2006,08,19,12,00,20.80
2006,08,19,12,01,20.80
2006,08,19,12,02,20.80
2006,08,19,12,03,20.80
2006,08,19,12,04,20.80
2006,08,19,12,05,20.90
2006,08,19,12,06,21.00
2006,08,19,12,07,21.00
2006,08,19,12,08,21.10
2006,08,19,12,09,21.20
2006,08,19,12,10,21.20
2006,08,19,12,11,21.10
2006,08,19,12,12,21.00
2006,08,19,12,13,20.90
2006,08,19,12,14,20.80
2006,08,19,12,15,20.80
2006,08,19,12,16,20.80
2006,08,19,12,17,20.80
2006,08,19,12,18,20.90
2006,08,19,12,19,20.90
2006,08,19,12,20,20.80
2006,08,19,12,21,20.70
2006,08,19,12,22,20.90
2006,08,19,12,23,21.00
2006,08,19,12,24,21.20
2006,08,19,12,25,21.40
2006,08,19,12,26,21.40
2006,08,19,12,27,21.50
2006,08,19,12,28,21.40
2006,08,19,12,29,21.40
2006,08,19,12,30,21.50
2006,08,19,12,31,21.50
2006,08,19,12,32,21.40
2006,08,19,12,33,21.20
2006,08,19,12,34,21.10
2006,08,19,12,35,21.00
2006,08,19,12,36,21.00
2006,08,19,12,37,21.00
2006,08,19,12,38,21.00
2006,08,19,12,39,21.10
2006,08,19,12,40,21.10
2006,08,19,12,41,21.10
2006,08,19,12,42,21.00
2006,08,19,12,43,20.90
2006,08,19,12,44,20.70
2006,08,19,12,45,20.60
2006,08,19,12,46,20.70
2006,08,19,12,47,20.80
2006,08,19,12,48,21.00
2006,08,19,12,49,21.10
2006,08,19,12,50,21.10
2006,08,19,12,51,21.10
2006,08,19,12,52,21.10
2006,08,19,12,53,21.10
2006,08,19,12,54,21.20
2006,08,19,12,55,21.30
2006,08,19,12,56,21.30
2006,08,19,12,57,21.30
2006,08,19,12,58,21.30
2006,08,19,12,59,21.30
2006,08,19,13,00,21.30
2006,08,19,13,01,21.30
2006,08,19,13,02,21.30
2006,08,19,13,03,21.40
2006,08,19,13,04,21.40
2006,08,19,13,05,21.40
2006,08,19,13,06,21.40
2006,08,19,13,07,21.50
2006,08,19,13,08,21.60
2006,08,19,13,09,21.70
2006,08,19,13,10,21.70
2006,08,19,13,11,21.70
2006,08,19,13,12,21.70
2006,08,19,13,13,21.50
2006,08,19,13,14,21.40
2006,08,19,13,15,21.40
2006,08,19,13,16,21.40
2006,08,19,13,17,21.60
2006,08,19,13,18,21.80
2006,08,19,13,19,21.80
2006,08,19,13,20,21.90
2006,08,19,13,21,21.80
2006,08,19,13,22,21.80
2006,08,19,13,23,21.80
2006,08,19,13,24,21.70
2006,08,19,13,25,21.70
2006,08,19,13,26,21.70
2006,08,19,13,27,21.80
2006,08,19,13,28,21.80
2006,08,19,13,29,21.90
2006,08,19,13,30,22.00
2006,08,19,13,31,22.00
2006,08,19,13,32,22.10
2006,08,19,13,33,22.20
2006,08,19,13,34,22.20
2006,08,19,13,35,22.20
2006,08,19,13,36,22.20
2006,08,19,13,37,22.20
2006,08,19,13,38,22.10
2006,08,19,13,39,22.10
2006,08,19,13,40,22.10
2006,08,19,13,41,22.10
2006,08,19,13,42,22.10
2006,08,19,13,43,22.20
2006,08,19,13,44,22.20
2006,08,19,13,45,22.40
2006,08,19,13,46,22.30
2006,08,19,13,47,22.30
2006,08,19,13,48,22.30
2006,08,19,13,49,22.30
2006,08,19,13,50,22.20
2006,08,19,13,51,22.20
2006,08,19,13,52,22.20
2006,08,19,13,53,22.20
2006,08,19,13,54,22.20
2006,08,19,13,55,22.30
2006,08,19,13,56,22.30
2006,08,19,13,57,22.30
2006,08,19,13,58,22.20
2006,08,19,13,59,22.20
2006,08,19,14,00,22.30
2006,08,19,14,01,22.20
2006,08,19,14,02,22.10
2006,08,19,14,03,22.10
2006,08,19,14,04,22.10
2006,08,19,14,05,22.10
2006,08,19,14,06,22.10
2006,08,19,14,07,22.10
2006,08,19,14,08,22.10
2006,08,19,14,09,22.30
2006,08,19,14,10,22.40
2006,08,19,14,11,22.50
2006,08,19,14,12,22.50
2006,08,19,14,13,22.50
2006,08,19,14,14,22.60
2006,08,19,14,15,22.70
2006,08,19,14,16,22.70
2006,08,19,14,17,22.60
2006,08,19,14,18,22.60
2006,08,19,14,19,22.70
2006,08,19,14,20,22.80
2006,08,19,14,21,22.90
2006,08,19,14,22,22.90
2006,08,19,14,23,22.80
2006,08,19,14,24,22.80
2006,08,19,14,25,22.80
2006,08,19,14,26,22.70
2006,08,19,14,27,22.70
2006,08,19,14,28,22.70
2006,08,19,14,29,22.80
2006,08,19,14,30,22.80
2006,08,19,14,31,22.70
2006,08,19,14,32,22.80
2006,08,19,14,33,22.70
2006,08,19,14,34,22.60
2006,08,19,14,35,22.60
2006,08,19,14,36,22.60
2006,08,19,14,37,22.70
2006,08,19,14,38,22.90
2006,08,19,14,39,23.00
2006,08,19,14,40,23.10
2006,08,19,14,41,23.20
2006,08,19,14,42,23.20
2006,08,19,14,43,23.40
2006,08,19,14,44,23.40
2006,08,19,14,45,23.40
2006,08,19,14,46,23.40
2006,08,19,14,47,23.40
2006,08,19,14,48,23.30
2006,08,19,14,49,23.40
2006,08,19,14,50,23.60
2006,08,19,14,51,23.60
2006,08,19,14,52,23.60
2006,08,19,14,53,23.60
2006,08,19,14,54,23.60
2006,08,19,14,55,23.60
2006,08,19,14,56,23.60
2006,08,19,14,57,23.50
2006,08,19,14,58,23.40
2006,08,19,14,59,23.30
2006,08,19,15,00,23.30
2006,08,19,15,01,23.30
2006,08,19,15,02,23.30
2006,08,19,15,03,23.40
2006,08,19,15,04,23.40
2006,08,19,15,05,23.50
2006,08,19,15,06,23.60
2006,08,19,15,07,23.60
2006,08,19,15,08,23.60
2006,08,19,15,09,23.50
2006,08,19,15,10,23.40
2006,08,19,15,11,23.40
2006,08,19,15,12,23.30
2006,08,19,15,13,23.30
2006,08,19,15,14,23.30
2006,08,19,15,15,23.30
2006,08,19,15,16,23.30
2006,08,19,15,17,23.50
2006,08,19,15,18,23.70
2006,08,19,15,19,23.90
2006,08,19,15,20,24.00
2006,08,19,15,21,24.10
2006,08,19,15,22,24.20
2006,08,19,15,23,24.30
2006,08,19,15,24,24.50
2006,08,19,15,25,24.70
2006,08,19,15,26,24.70
2006,08,19,15,27,24.70
2006,08,19,15,28,24.90
2006,08,19,15,29,25.00
2006,08,19,15,30,25.00
2006,08,19,15,31,25.10
2006,08,19,15,32,25.20
2006,08,19,15,33,25.30
2006,08,19,15,34,25.30
2006,08,19,15,35,25.40
2006,08,19,15,36,25.50
2006,08,19,15,37,25.60
2006,08,19,15,38,25.70
2006,08,19,15,39,25.70
2006,08,19,15,40,25.70
2006,08,19,15,41,25.70
2006,08,19,15,42,25.70
2006,08,19,15,43,25.50
2006,08,19,15,44,25.40
2006,08,19,15,45,25.30
2006,08,19,15,46,25.30
2006,08,19,15,47,25.30
2006,08,19,15,48,25.20
2006,08,19,15,49,25.20
2006,08,19,15,50,25.20
2006,08,19,15,51,25.10
2006,08,19,15,52,25.10
2006,08,19,15,53,25.00
2006,08,19,15,54,25.00
2006,08,19,15,55,25.10
2006,08,19,15,56,25.10
2006,08,19,15,57,25.10
2006,08,19,15,58,25.20
2006,08,19,15,59,25.30
2006,08,19,16,00,25.30
2006,08,19,16,01,25.20
2006,08,19,16,02,25.20
2006,08,19,16,03,25.20
2006,08,19,16,04,25.20
2006,08,19,16,05,25.20
2006,08,19,16,06,25.20
2006,08,19,16,07,25.30
2006,08,19,16,08,25.30
2006,08,19,16,09,25.30
2006,08,19,16,10,25.40
2006,08,19,16,11,25.50
2006,08,19,16,12,25.50
2006,08,19,16,13,25.50
2006,08,19,16,14,25.30
2006,08,19,16,15,25.30
2006,08,19,16,16,25.20
2006,08,19,16,17,25.20
2006,08,19,16,18,25.20
2006,08,19,16,19,25.10
2006,08,19,16,20,25.10
2006,08,19,16,21,25.20
2006,08,19,16,22,25.30
2006,08,19,16,23,25.40
2006,08,19,16,24,25.40
2006,08,19,16,25,25.30
2006,08,19,16,26,25.30
2006,08,19,16,27,25.30
2006,08,19,16,28,25.40
2006,08,19,16,29,25.40
2006,08,19,16,30,25.40
2006,08,19,16,31,25.40
2006,08,19,16,32,25.50
2006,08,19,16,33,25.50
2006,08,19,16,34,25.50
2006,08,19,16,35,25.60
2006,08,19,16,36,25.80
2006,08,19,16,37,25.80
2006,08,19,16,38,25.80
2006,08,19,16,39,25.90
2006,08,19,16,40,25.90
2006,08,19,16,41,26.00
2006,08,19,16,42,26.10
2006,08,19,16,43,26.10
2006,08,19,16,44,26.00
2006,08,19,16,45,26.20
2006,08,19,16,46,26.20
2006,08,19,16,47,26.20
2006,08,19,16,48,26.10
2006,08,19,16,49,26.10
2006,08,19,16,50,26.10
2006,08,19,16,51,26.20
2006,08,19,16,52,26.30
2006,08,19,16,53,26.30
2006,08,19,16,54,26.20
2006,08,19,16,55,26.00
2006,08,19,16,56,25.90
2006,08,19,16,57,25.90
2006,08,19,16,58,26.00
2006,08,19,16,59,26.00
2006,08,19,17,00,26.00
2006,08,19,17,01,26.10
2006,08,19,17,02,26.00
2006,08,19,17,03,26.00
2006,08,19,17,04,25.90
2006,08,19,17,05,25.90
2006,08,19,17,06,25.90
2006,08,19,17,07,25.90
2006,08,19,17,08,25.80
2006,08,19,17,09,25.80
2006,08,19,17,10,25.80
2006,08,19,17,11,25.90
2006,08,19,17,12,25.90
2006,08,19,17,13,25.90
2006,08,19,17,14,25.90
2006,08,19,17,15,26.00
2006,08,19,17,16,26.00
2006,08,19,17,17,26.10
2006,08,19,17,18,26.20
2006,08,19,17,19,26.20
2006,08,19,17,20,26.20